Fitchburg, MA

11:20 PM EDT on July 20, 2019 (GMT -0400)
Fitchburg Municipal

Weather History for KFIT - May, 2019

Change the Weather History Date:

Thursday, May 2, 2019

  Actual Average (WUND) Record (WUND)
Temperature  
Mean Temperature 46 °F -  
Max Temperature 48 °F - - (-1)
Min Temperature 43 °F - - (-1)
Degree Days  
Heating Degree Days 20    
Moisture  
Dew Point 43 °F    
Average Humidity 89    
Maximum Humidity 93    
Minimum Humidity 80    
Precipitation  
Precipitation 0.21 in - - ()
Sea Level Pressure  
Sea Level Pressure 30.20 in    
Wind  
Wind Speed 5 mph (ENE)    
Max Wind Speed 10 mph    
Max Gust Speed -    
Visibility 7 miles    
Events Rain    
Averages and records for this station are not official NWS values.
T = Trace of Precipitation, MM = Missing Value Source: NWS Daily Summary

Daily Weather History Graph

Daily Weather History Graph

Search for Another Location

Airport or City:

Astronomy

May. 02, 2019 Rise Set
Actual Time 5:40 AM EDT 7:47 PM EDT
Civil Twilight 5:10 AM EDT 8:18 PM EDT
Nautical Twilight 4:32 AM EDT 8:56 PM EDT
Astronomical Twilight 3:50 AM EDT 9:38 PM EDT
Moon 4:57 AM EDT (5/2) 5:27 PM EDT (5/2)
Length of Visible Light 15h 08m
Length of Day
14h 07m
Waning Crescent, 5% of the Moon is Illuminated
May 2
Waning Crescent
May 4
New
May 11
First Quarter
May 18
Full
May 26
Last Quarter

Hourly Weather History & Observations

Time (EDT) Temp. Windchill Dew Point Humidity Pressure Visibility Wind Dir Wind Speed Gust Speed Precip Events Conditions
12:25 AM 48.0 °F - 42.1 °F 80% 30.18 in 10.0 mi SSW 10.4 mph - N/A   Overcast
12:52 AM 48.0 °F - 42.1 °F 80% 30.20 in 10.0 mi SSW 5.8 mph - N/A   Overcast
1:23 AM 46.9 °F - 44.1 °F 90% 30.20 in 2.5 mi NNW 5.8 mph - 0.01 in Rain Light Rain
1:37 AM 46.9 °F - 44.1 °F 90% 30.20 in 2.5 mi NNW 4.6 mph - 0.02 in Rain Light Rain
1:50 AM 46.4 °F - 44.6 °F 93% 30.17 in 3.0 mi Calm Calm - 0.03 in Rain Light Rain
1:52 AM 46.9 °F - 45.0 °F 93% 30.18 in 3.0 mi Calm Calm - 0.03 in Rain Light Rain
2:41 AM 46.9 °F - 45.0 °F 93% 30.12 in 7.0 mi SSE 4.6 mph - 0.01 in Rain Light Rain
2:52 AM 46.9 °F - 45.0 °F 93% 30.13 in 10.0 mi ESE 3.5 mph - 0.01 in   Mostly Cloudy
2:59 AM 46.9 °F - 45.0 °F 93% 30.12 in 10.0 mi ESE 3.5 mph - N/A   Mostly Cloudy
3:52 AM 46.9 °F - 44.1 °F 90% 30.10 in 10.0 mi Calm Calm - N/A   Mostly Cloudy
4:52 AM 46.9 °F - 44.1 °F 90% 30.10 in 10.0 mi Calm Calm - 0.00 in   Scattered Clouds
5:52 AM 46.9 °F - 45.0 °F 93% 30.11 in 10.0 mi Calm Calm - 0.00 in Rain Light Rain
5:58 AM 46.9 °F - 45.0 °F 93% 30.11 in 10.0 mi Calm Calm - 0.00 in Rain Light Rain
6:52 AM 46.9 °F - 45.0 °F 93% 30.14 in 10.0 mi NE 3.5 mph - 0.00 in   Overcast
7:52 AM 46.9 °F - 44.1 °F 90% 30.17 in 5.0 mi NNE 5.8 mph - 0.02 in Rain Light Rain
8:01 AM 48.0 °F - 45.0 °F 89% 30.17 in 5.0 mi Variable 3.5 mph - 0.01 in Rain Light Rain
8:52 AM 46.9 °F - 44.1 °F 90% 30.17 in 7.0 mi NNE 9.2 mph - 0.04 in Rain Light Rain
9:52 AM 46.9 °F - 44.1 °F 90% 30.20 in 8.0 mi ENE 4.6 mph - 0.04 in Rain Light Rain
10:52 AM 46.9 °F - 44.1 °F 90% 30.20 in 10.0 mi NNE 8.1 mph - 0.02 in Rain Light Rain
11:52 AM 48.0 °F - 43.0 °F 83% 30.21 in 10.0 mi NE 5.8 mph - 0.00 in   Overcast
12:52 PM 46.9 °F - 43.0 °F 86% 30.22 in 10.0 mi ENE 4.6 mph - N/A   Overcast
1:25 PM 46.9 °F - 44.1 °F 90% 30.20 in 10.0 mi East 8.1 mph - 0.00 in   Overcast
1:52 PM 46.0 °F 41.9 °F 43.0 °F 89% 30.22 in 8.0 mi ENE 8.1 mph - 0.01 in Rain Light Rain
2:52 PM 46.0 °F 42.5 °F 43.0 °F 89% 30.22 in 10.0 mi NE 6.9 mph - 0.03 in Rain Light Rain
3:52 PM 46.0 °F 42.5 °F 42.1 °F 86% 30.24 in 10.0 mi NE 6.9 mph - 0.00 in   Overcast
4:23 PM 46.0 °F 43.9 °F 42.1 °F 86% 30.22 in 10.0 mi East 4.6 mph - N/A   Overcast
4:52 PM 46.0 °F 44.8 °F 42.1 °F 86% 30.25 in 10.0 mi Variable 3.5 mph - N/A   Overcast
5:52 PM 45.0 °F 42.6 °F 42.1 °F 90% 30.25 in 4.0 mi ENE 4.6 mph - 0.00 in Rain Light Rain
6:52 PM 44.1 °F 41.5 °F 41.0 °F 89% 30.26 in 7.0 mi ENE 4.6 mph - 0.00 in   Overcast
7:39 PM 44.1 °F 41.5 °F 41.0 °F 89% 30.25 in 2.0 mi ENE 4.6 mph - 0.01 in Rain Light Rain
7:49 PM 44.6 °F 43.1 °F 41.0 °F 87% 30.26 in 6.0 mi Variable 3.5 mph - 0.01 in   Overcast
7:52 PM 44.1 °F 42.5 °F 41.0 °F 89% 30.27 in 7.0 mi ENE 3.5 mph - 0.01 in   Overcast
8:52 PM 44.1 °F 42.5 °F 42.1 °F 93% 30.28 in 10.0 mi ESE 3.5 mph - N/A   Overcast
9:52 PM 44.1 °F 41.5 °F 41.0 °F 89% 30.28 in 4.0 mi ESE 4.6 mph - N/A   Overcast
10:52 PM 44.1 °F 40.8 °F 41.0 °F 89% 30.27 in 4.0 mi SE 5.8 mph - N/A   Overcast
11:06 PM 43.0 °F 40.3 °F 41.0 °F 93% 30.26 in 4.0 mi SE 4.6 mph - N/A   Overcast
11:52 PM 43.0 °F 40.3 °F 41.0 °F 93% 30.27 in 5.0 mi SE 4.6 mph - N/A   Overcast